Grand Island, NE

4:49 PM CDT on October 20, 2017 (GMT -0500)
Central Nebraska Regional

Weather History for KGRI - March, 2012

Change the Weather History Date:

Tuesday, March 20, 2012

  Actual Average Record
Temperature  
Mean Temperature 51 °F 41 °F  
Max Temperature 54 °F 53 °F 84 °F (1921)
Min Temperature 47 °F 29 °F -3 °F (1906)
Degree Days  
Heating Degree Days 14 24  
Month to date heating degree days 290 554  
Since 1 July heating degree days 4636 5315  
Cooling Degree Days 0 0  
Month to date cooling degree days 12 0  
Year to date cooling degree days 12 0  
Moisture  
Dew Point 44 °F    
Average Humidity 78    
Maximum Humidity 93    
Minimum Humidity 63    
Precipitation  
Precipitation T in 0.07 in 1.61 in (2006)
Month to date precipitation 0.45 1.04  
Year to date precipitation 1.66 2.25  
Snow  
Snow 0.00 in 0.20 in 17.80 in (2006)
Month to date snowfall T 3.7  
Since 1 July snowfall 20.1 25.8  
Snow Depth 0.00 in    
Sea Level Pressure  
Sea Level Pressure 29.79 in    
Wind  
Wind Speed 9 mph (ENE)    
Max Wind Speed 21 mph    
Max Gust Speed 25 mph    
Visibility 10 miles    
Events Rain    
T = Trace of Precipitation, MM = Missing Value Source: NWS Daily Summary

Daily Weather History Graph

Daily Weather History Graph

Search for Another Location

Airport or City:

Trip Planner

Search our weather history database for the weather conditions in past years. The results will help you decide how hot, cold, wet, or windy it might be!

Date:

Astronomy

Mar. 20, 2012 Rise Set
Actual Time 7:35 AM CDT 7:45 PM CDT
Civil Twilight 7:08 AM CDT 8:13 PM CDT
Nautical Twilight 6:36 AM CDT 8:45 PM CDT
Astronomical Twilight 6:03 AM CDT 9:18 PM CDT
Moon 6:19 AM CDT 6:15 PM CDT
Length of Visible Light 13h 05m
Length of Day
12h 10m
Waning Crescent, 4% of the Moon is Illuminated
Mar 20
Waning Crescent
Mar 22
New
Mar 30
First Quarter
Apr 6
Full
Apr 13
Last Quarter

Hourly Weather History & Observations

Time (CDT) Temp. Windchill Dew Point Humidity Pressure Visibility Wind Dir Wind Speed Gust Speed Precip Events Conditions
12:25 AM 51.8 °F - 48.2 °F 88% 29.64 in 10.0 mi South 11.5 mph - N/A   Partly Cloudy
12:40 AM 51.8 °F - 48.2 °F 88% 29.65 in 10.0 mi South 12.7 mph - N/A   Mostly Cloudy
12:53 AM 51.1 °F - 48.0 °F 89% 29.64 in 10.0 mi South 13.8 mph - N/A   Mostly Cloudy
1:10 AM 51.8 °F - 48.2 °F 88% 29.64 in 10.0 mi South 15.0 mph - N/A   Scattered Clouds
1:20 AM 51.8 °F - 48.2 °F 88% 29.64 in 10.0 mi South 15.0 mph - N/A   Mostly Cloudy
1:53 AM 51.1 °F - 48.0 °F 89% 29.66 in 10.0 mi South 16.1 mph - N/A   Mostly Cloudy
2:53 AM 51.1 °F - 46.9 °F 86% 29.68 in 10.0 mi South 8.1 mph - N/A   Mostly Cloudy
3:46 AM 51.8 °F - 48.2 °F 88% 29.68 in 10.0 mi South 5.8 mph - N/A   Overcast
3:53 AM 51.1 °F - 48.0 °F 89% 29.69 in 10.0 mi South 8.1 mph - N/A   Overcast
4:22 AM 50.0 °F - 46.4 °F 87% 29.69 in 8.0 mi SSW 8.1 mph - N/A   Overcast
4:53 AM 50.0 °F - 46.9 °F 89% 29.70 in 7.0 mi South 8.1 mph - N/A   Mostly Cloudy
5:53 AM 48.9 °F - 45.0 °F 86% 29.73 in 10.0 mi WSW 5.8 mph - N/A   Mostly Cloudy
6:25 AM 48.2 °F - 46.4 °F 93% 29.74 in 10.0 mi Calm Calm - N/A   Overcast
6:53 AM 48.9 °F - 46.0 °F 90% 29.76 in 10.0 mi NNE 3.5 mph - N/A   Overcast
7:53 AM 48.0 °F - 46.0 °F 93% 29.80 in 6.0 mi Calm Calm - N/A   Overcast
8:33 AM 50.0 °F - 46.4 °F 87% 29.82 in 6.0 mi East 6.9 mph - N/A   Mostly Cloudy
8:53 AM 50.0 °F - 46.9 °F 89% 29.83 in 7.0 mi East 5.8 mph - N/A   Partly Cloudy
9:53 AM 48.0 °F - 39.0 °F 71% 29.88 in 10.0 mi North 18.4 mph - N/A   Mostly Cloudy
10:16 AM 46.4 °F 39.2 °F 37.4 °F 71% 29.87 in 10.0 mi North 18.4 mph 24.2 mph N/A   Overcast
10:53 AM 48.0 °F - 37.9 °F 68% 29.89 in 10.0 mi North 17.3 mph 24.2 mph N/A   Overcast
11:12 AM 51.8 °F - 39.2 °F 62% 29.89 in 10.0 mi North 16.1 mph - N/A   Overcast
11:53 AM 52.0 °F - 39.9 °F 63% 29.88 in 10.0 mi North 15.0 mph - N/A   Scattered Clouds
12:53 PM 52.0 °F - 39.0 °F 61% 29.87 in 10.0 mi North 12.7 mph - N/A   Overcast
1:53 PM 51.1 °F - 39.9 °F 66% 29.87 in 10.0 mi NNE 15.0 mph - N/A   Overcast
2:53 PM 52.0 °F - 39.9 °F 63% 29.86 in 10.0 mi NE 13.8 mph - 0.00 in Rain Light Rain
3:53 PM 53.1 °F - 41.0 °F 64% 29.84 in 10.0 mi NE 12.7 mph - 0.00 in   Overcast
4:53 PM 53.1 °F - 42.1 °F 66% 29.86 in 10.0 mi NE 11.5 mph - N/A   Overcast
5:53 PM 51.8 °F - 42.8 °F 71% 29.86 in 10.0 mi East 13.8 mph - N/A   Overcast
6:53 PM 51.1 °F - 43.0 °F 74% 29.88 in 10.0 mi NE 6.9 mph - N/A   Overcast
7:53 PM 50.0 °F - 43.0 °F 77% 29.89 in 10.0 mi NNE 4.6 mph - N/A   Overcast
8:53 PM 48.9 °F - 44.1 °F 83% 29.90 in 10.0 mi Calm Calm - N/A   Overcast
9:53 PM 48.0 °F - 44.1 °F 86% 29.89 in 10.0 mi NNE 4.6 mph - N/A   Overcast
10:53 PM 48.0 °F - 44.1 °F 86% 29.91 in 10.0 mi Calm Calm - N/A   Overcast
11:53 PM 48.9 °F - 42.1 °F 77% 29.91 in 10.0 mi North 6.9 mph - N/A   Overcast